FW7665 Weather Reports


time (UTC)temp
C
wind
direction
speed
KPH
gust
KPH
rain 1hr
cm
rain 24hr
cm
rain mn
cm
humidity
%
barometer
mb
20260505040008 3 0 0.0 0.0 0.05 0.46 0.46 88 1013.3
20260505035408 3 0 0.0 0.0 0.08 0.46 0.46 88 1013.3
20260505034508 3 234 0.0 3.2 0.18 0.46 0.46 88 1013.3
20260505033608 3 234 0.0 1.6 0.28 0.46 0.46 88 1013.3
20260505032708 3 0 0.0 0.0 0.38 0.46 0.46 88 1013.3
20260505031808 3 0 0.0 0.0 0.46 0.46 0.46 88 1013.3
20260505030908 3 0 0.0 0.0 0.43 0.43 0.43 87 1013.3
20260505030029 3 234 0.0 3.2 0.41 0.41 0.43 86 1012.1
20260505025429 3 234 0.0 3.2 0.38 0.38 0.38 86 1012.1
20260505024529 4 234 0.0 1.6 0.28 0.28 0.28 86 1012.1
20260505023608 5 0 0.0 0.0 0.18 0.18 0.18 86 1012.1
20260505022710 5 0 0.0 0.0 0.08 0.08 0.08 84 1012.1
20260505021808 6 234 1.6 8.0 0.00 0.00 0.00 79 1012.1
20260505020908 7 241 1.6 8.0 0.00 0.00 0.00 70 1012.1
20260505020008 7 270 0.0 6.4 0.00 0.00 0.00 69 1011.4
20260505015408 7 202 0.0 3.2 0.00 0.00 0.00 69 1011.4
20260505014507 7 210 1.6 4.8 0.00 0.00 0.00 68 1011.4
20260505013607 7 216 1.6 4.8 0.00 0.00 0.00 67 1011.4
20260505012707 7 195 1.6 6.4 0.00 0.00 0.00 66 1011.4
20260505011808 7 187 1.6 4.8 0.00 0.00 0.00 66 1011.4
20260505010907 7 187 0.0 4.8 0.00 0.00 0.00 64 1011.4
20260505010007 7 184 1.6 4.8 0.00 0.00 0.00 64 1011.6
20260505005407 7 178 1.6 8.0 0.00 0.00 0.00 63 1011.6
20260505004509 8 174 0.0 4.8 0.00 0.00 0.00 63 1011.6
20260505003607 8 118 4.8 14.5 0.00 0.00 0.00 60 1011.6
20260505002707 9 116 4.8 9.7 0.00 0.00 0.00 59 1011.6
20260505001807 8 111 3.2 11.3 0.00 0.00 0.00 58 1011.6
20260505000907 9 119 4.8 16.1 0.00 0.00 0.00 56 1011.6
20260505000009 9 101 3.2 9.7 0.00 0.00 0.00 56 1011.7
20260504235407 9 101 4.8 9.7 0.00 0.00 0.00 55 1011.7
20260504234528 9 116 6.4 16.1 0.00 0.00 0.00 54 1010.8
20260504233607 10 96 3.2 9.7 0.00 0.00 0.00 56 1010.8
20260504232709 10 84 3.2 9.7 0.00 0.00 0.00 54 1010.8
20260504231807 10 93 4.8 9.7 0.00 0.00 0.00 53 1010.8
20260504230907 10 85 1.6 11.3 0.00 0.00 0.00 53 1010.8
20260504230007 10 107 6.4 17.7 0.00 0.00 0.00 52 1010.8
20260504225407 10 104 8.0 22.5 0.00 0.00 0.00 49 1010.8
20260504224528 11 114 4.8 14.5 0.00 0.00 0.00 46 1010.6
20260504223607 12 139 4.8 17.7 0.00 0.00 0.00 42 1010.6
20260504222707 13 225 1.6 6.4 0.00 0.00 0.00 40 1010.6
20260504221807 13 281 1.6 8.0 0.00 0.00 0.00 39 1010.6
20260504220906 13 263 3.2 9.7 0.00 0.00 0.00 37 1010.6
20260504220007 13 268 3.2 12.9 0.00 0.00 0.00 40 1010.6
20260504215407 13 274 4.8 14.5 0.00 0.00 0.00 40 1010.6
20260504214506 13 260 6.4 19.3 0.00 0.00 0.00 39 1010.2
20260504213628 15 274 6.4 16.1 0.00 0.00 0.00 35 1010.2
20260504212706 15 1 3.2 11.3 0.00 0.00 0.00 33 1010.2
20260504211827 15 36 6.4 17.7 0.00 0.00 0.00 34 1010.2
20260504210907 16 98 6.4 17.7 0.00 0.00 0.00 29 1010.2
20260504210007 16 36 3.2 14.5 0.00 0.00 0.00 29 1010.2
20260504205407 16 8 1.6 12.9 0.00 0.00 0.00 33 1010.2
20260504204506 15 38 3.2 16.1 0.00 0.00 0.00 33 1011.6
20260504203607 16 66 4.8 16.1 0.00 0.00 0.00 34 1011.6
20260504202707 15 53 3.2 11.3 0.00 0.00 0.00 36 1011.6
20260504201806 15 31 6.4 19.3 0.00 0.00 0.00 36 1011.6
20260504200907 14 78 3.2 8.0 0.00 0.00 0.00 40 1011.6
20260504200027 13 34 4.8 11.3 0.00 0.00 0.00 44 1011.6
20260504195406 13 304 3.2 11.3 0.00 0.00 0.00 41 1011.6
20260504194506 13 26 4.8 19.3 0.00 0.00 0.00 42 1012.3
20260504193627 11 327 3.2 19.3 0.00 0.00 0.00 47 1012.3
20260504192706 12 273 4.8 14.5 0.00 0.00 0.00 47 1012.3
20260504191808 13 291 3.2 11.3 0.00 0.00 0.00 46 1012.3
20260504190906 12 281 4.8 14.5 0.00 0.00 0.00 44 1012.3
20260504190027 11 284 3.2 11.3 0.00 0.00 0.00 44 1012.3
20260504185406 11 279 3.2 11.3 0.00 0.00 0.00 42 1012.3
20260504184528 12 286 4.8 14.5 0.00 0.00 0.00 43 1012.3
20260504183627 12 288 4.8 14.5 0.00 0.00 0.00 40 1012.3
20260504182706 13 269 4.8 14.5 0.00 0.00 0.00 40 1012.3
20260504181806 13 257 4.8 19.3 0.00 0.00 0.00 37 1012.3
20260504180927 13 288 4.8 17.7 0.00 0.00 0.00 37 1012.3
20260504180006 13 301 3.2 9.7 0.00 0.00 0.00 39 1012.3
20260504175406 12 275 3.2 11.3 0.00 0.00 0.00 39 1012.3
20260504174506 12 281 3.2 9.7 0.00 0.00 0.00 40 1014.1
20260504173627 12 272 3.2 8.0 0.00 0.00 0.00 36 1014.1
20260504172706 13 282 4.8 12.9 0.00 0.00 0.00 37 1014.1
20260504171805 13 352 3.2 12.9 0.00 0.00 0.00 35 1014.1
20260504170927 12 180 1.6 12.9 0.00 0.00 0.00 36 1014.1
20260504150905 3 0 0.0 0.0 0.00 0.00 0.00 75 1014.1
20260504140905 0 0 0.0 0.0 0.00 0.00 0.00 75 1014.1
20260504081809 0 0 0.0 0.0 0.00 0.00 0.00 70 1015.1
20260504080909 0 0 0.0 0.0 0.00 0.00 0.00 71 1015.1
20260504050008 3 0 0.0 0.0 0.00 0.00 0.00 63 1016.2
20260504045408 3 0 0.0 0.0 0.00 0.00 0.00 62 1016.2
20260504044509 4 0 0.0 0.0 0.00 0.00 0.00 59 1016.2
20260504043630 4 237 0.0 3.2 0.00 0.00 0.00 60 1016.2
20260504042708 4 0 0.0 0.0 0.00 0.00 0.00 61 1016.2
20260504041808 5 0 0.0 0.0 0.00 0.00 0.00 60 1016.2
20260504040908 5 0 0.0 0.0 0.00 0.00 0.00 60 1016.2